sat.trackr.live / text

‹ back to catalog

STARLINK-34251

NORAD 64205 · 2025-117C

PAYLOAD ACTIVE UNKNOWN

§ Identity

Operator
Country
US
Launch date
2025-05-31
Launch site
AFWTR
Launch vehicle
Mass (kg)
RCS (m²)

Purposes: comms

External: N2YO · Heavens-Above · Gunter

§ Orbital elements

Epoch: 2026-09-20T11:09:46.362816Z

Period
93.85 min
Inclination
53.1588°
Eccentricity
0.0001377
Mean motion
15.34410747 rev/d
Perigee alt
461.7 km
Apogee alt
463.6 km
Semi-major
6,840.8 km
B*
6.5557e-4
RAAN
211.5629°
Arg perigee
81.4545°
Mean anomaly
278.6614°
Rev number
7,439

§ Raw data

STARLINK-342511 64205U 25117C   26263.46511994  .00021845  00000+0  65557-3 0  99912 64205  53.1588 211.5629 0001377  81.4545 278.6614 15.34410747 74393

JSON: /api/v1/satellites/64205 · /tle

For live sub-satellite position, see the globe view (requires WebGL).

§ Visibility from observer

Set your observer location to see the next 7 days of passes ≥ 10°. The values pass through the URL so the page stays shareable.

No JS? Fill the form by hand. The geolocation button needs JavaScript.